| time (UTC) | temp C | wind direction | speed KPH | gust KPH | rain 1hr cm | rain 24hr cm | rain mn cm | humidity % | barometer mb |
| 20260506233140 | 13 | 251 | 3.2 | 8.0 | 0.00 | 0.00 | 0.00 | 77 | 1022.1 |
| 20260506232636 | 13 | 354 | 0.0 | 8.0 | 0.00 | 0.00 | 0.00 | 77 | 1022.3 |
| 20260506232131 | 13 | 83 | 0.0 | 8.0 | 0.00 | 0.00 | 0.00 | 77 | 1022.4 |
| 20260506231629 | 13 | 239 | 4.8 | 9.7 | 0.00 | 0.00 | 0.00 | 77 | 1022.4 |
| 20260506231127 | 13 | 263 | 3.2 | 4.8 | 0.00 | 0.00 | 0.00 | 76 | 1022.4 |
| 20260506230624 | 13 | 277 | 0.0 | 6.4 | 0.00 | 0.00 | 0.00 | 76 | 1022.1 |
| 20260506230121 | 13 | 290 | 0.0 | 6.4 | 0.00 | 0.00 | 0.00 | 75 | 1022.2 |
| 20260506225617 | 14 | 282 | 0.0 | 4.8 | 0.00 | 0.00 | 0.00 | 76 | 1022.1 |
| 20260506225114 | 14 | 288 | 4.8 | 9.7 | 0.00 | 0.00 | 0.00 | 76 | 1022.2 |
| 20260506224610 | 13 | 242 | 3.2 | 9.7 | 0.00 | 0.00 | 0.00 | 75 | 1022.4 |
| 20260506224107 | 14 | 288 | 1.6 | 9.7 | 0.00 | 0.00 | 0.00 | 75 | 1022.3 |
| 20260506223603 | 14 | 297 | 1.6 | 6.4 | 0.00 | 0.00 | 0.00 | 74 | 1022.5 |
| 20260506223059 | 14 | 282 | 1.6 | 14.5 | 0.00 | 0.00 | 0.00 | 74 | 1022.2 |
| 20260506222556 | 14 | 299 | 0.0 | 4.8 | 0.00 | 0.00 | 0.00 | 75 | 1022.3 |
| 20260506222052 | 14 | 269 | 4.8 | 8.0 | 0.00 | 0.00 | 0.00 | 73 | 1022.3 |
| 20260506221550 | 15 | 273 | 0.0 | 11.3 | 0.00 | 0.00 | 0.00 | 73 | 1022.2 |
| 20260506221048 | 15 | 269 | 1.6 | 6.4 | 0.00 | 0.00 | 0.00 | 72 | 1022.3 |
| 20260506220544 | 15 | 288 | 0.0 | 8.0 | 0.00 | 0.00 | 0.00 | 72 | 1022.3 |
| 20260506220040 | 15 | 216 | 6.4 | 11.3 | 0.00 | 0.00 | 0.00 | 73 | 1022.2 |
| 20260506215537 | 15 | 228 | 3.2 | 4.8 | 0.00 | 0.00 | 0.00 | 73 | 1022.2 |
| 20260506215032 | 15 | 282 | 0.0 | 12.9 | 0.00 | 0.00 | 0.00 | 73 | 1022.3 |
| 20260506214529 | 14 | 245 | 6.4 | 9.7 | 0.00 | 0.00 | 0.00 | 74 | 1022.4 |
| 20260506214027 | 14 | 288 | 4.8 | 11.3 | 0.00 | 0.00 | 0.00 | 74 | 1022.3 |
| 20260506213525 | 14 | 240 | 9.7 | 14.5 | 0.00 | 0.00 | 0.00 | 74 | 1022.2 |
| 20260506213022 | 14 | 265 | 4.8 | 9.7 | 0.00 | 0.00 | 0.00 | 76 | 1022.4 |
| 20260506212518 | 14 | 255 | 4.8 | 6.4 | 0.00 | 0.00 | 0.00 | 76 | 1022.4 |
| 20260506212013 | 14 | 282 | 4.8 | 9.7 | 0.00 | 0.00 | 0.00 | 78 | 1022.5 |
| 20260506211509 | 13 | 227 | 0.0 | 4.8 | 0.00 | 0.00 | 0.00 | 80 | 1022.3 |
| 20260506211007 | 13 | 228 | 0.0 | 9.7 | 0.00 | 0.00 | 0.00 | 81 | 1022.4 |
| 20260506210503 | 13 | 251 | 4.8 | 14.5 | 0.00 | 0.00 | 0.00 | 81 | 1022.4 |
| 20260506210000 | 13 | 256 | 8.0 | 8.0 | 0.00 | 0.00 | 0.00 | 81 | 1022.4 |
| 20260506205456 | 13 | 226 | 0.0 | 6.4 | 0.00 | 0.00 | 0.00 | 80 | 1022.6 |
| 20260506204952 | 13 | 269 | 1.6 | 9.7 | 0.00 | 0.00 | 0.00 | 80 | 1022.5 |
| 20260506204450 | 13 | 282 | 0.0 | 9.7 | 0.00 | 0.00 | 0.00 | 82 | 1022.3 |
| 20260506203947 | 13 | 288 | 0.0 | 8.0 | 0.00 | 0.00 | 0.00 | 82 | 1022.5 |
| 20260506203444 | 12 | 316 | 3.2 | 8.0 | 0.00 | 0.00 | 0.00 | 81 | 1022.4 |
| 20260506202941 | 12 | 298 | 3.2 | 8.0 | 0.00 | 0.00 | 0.00 | 81 | 1022.5 |
| 20260506202438 | 12 | 16 | 3.2 | 11.3 | 0.00 | 0.00 | 0.00 | 82 | 1022.3 |
| 20260506201935 | 12 | 282 | 1.6 | 8.0 | 0.00 | 0.00 | 0.00 | 82 | 1022.4 |
| 20260506201432 | 12 | 255 | 3.2 | 8.0 | 0.00 | 0.00 | 0.00 | 82 | 1021.9 |
| 20260506200929 | 12 | 270 | 1.6 | 6.4 | 0.00 | 0.00 | 0.00 | 83 | 1022.3 |
| 20260506200425 | 12 | 306 | 0.0 | 9.7 | 0.00 | 0.00 | 0.00 | 83 | 1022.3 |
| 20260506195922 | 12 | 263 | 1.6 | 6.4 | 0.00 | 0.00 | 0.00 | 83 | 1022.1 |
| 20260506195419 | 12 | 288 | 0.0 | 6.4 | 0.00 | 0.00 | 0.00 | 84 | 1022.2 |
| 20260506194915 | 12 | 249 | 4.8 | 9.7 | 0.00 | 0.00 | 0.00 | 83 | 1022.1 |
| 20260506194413 | 12 | 312 | 1.6 | 4.8 | 0.00 | 0.00 | 0.00 | 82 | 1022.1 |
| 20260506193909 | 12 | 289 | 0.0 | 3.2 | 0.00 | 0.00 | 0.00 | 81 | 1022.3 |
| 20260506193407 | 12 | 247 | 6.4 | 8.0 | 0.00 | 0.00 | 0.00 | 81 | 1022.1 |
| 20260506192903 | 12 | 215 | 1.6 | 9.7 | 0.00 | 0.00 | 0.00 | 80 | 1022.3 |
| 20260506192400 | 12 | 237 | 6.4 | 9.7 | 0.00 | 0.00 | 0.00 | 79 | 1021.8 |
| 20260506191857 | 12 | 255 | 3.2 | 8.0 | 0.00 | 0.00 | 0.00 | 80 | 1022.0 |
| 20260506191353 | 12 | 275 | 6.4 | 8.0 | 0.00 | 0.00 | 0.00 | 80 | 1022.1 |
| 20260506190850 | 12 | 272 | 4.8 | 8.0 | 0.00 | 0.00 | 0.00 | 79 | 1022.0 |
| 20260506190346 | 12 | 282 | 1.6 | 6.4 | 0.00 | 0.00 | 0.00 | 80 | 1022.0 |
| 20260506185843 | 12 | 309 | 0.0 | 3.2 | 0.00 | 0.00 | 0.00 | 79 | 1022.1 |
| 20260506185340 | 12 | 255 | 1.6 | 4.8 | 0.00 | 0.00 | 0.00 | 79 | 1022.0 |
| 20260506184837 | 12 | 289 | 1.6 | 6.4 | 0.00 | 0.00 | 0.00 | 78 | 1022.1 |
| 20260506184334 | 12 | 309 | 3.2 | 3.2 | 0.00 | 0.00 | 0.00 | 78 | 1021.8 |
| 20260506183832 | 12 | 282 | 3.2 | 9.7 | 0.00 | 0.00 | 0.00 | 78 | 1021.6 |
| 20260506183327 | 12 | 282 | 0.0 | 6.4 | 0.00 | 0.00 | 0.00 | 78 | 1021.9 |
| 20260506182825 | 12 | 294 | 1.6 | 6.4 | 0.00 | 0.00 | 0.00 | 78 | 1021.8 |
| 20260506182321 | 12 | 227 | 1.6 | 4.8 | 0.00 | 0.00 | 0.00 | 79 | 1021.8 |
| 20260506181819 | 12 | 282 | 0.0 | 4.8 | 0.00 | 0.00 | 0.00 | 78 | 1021.9 |
| 20260506181317 | 12 | 258 | 0.0 | 6.4 | 0.00 | 0.00 | 0.00 | 78 | 1021.9 |
| 20260506180814 | 12 | 273 | 3.2 | 6.4 | 0.00 | 0.00 | 0.00 | 78 | 1021.9 |
| 20260506180310 | 12 | 240 | 3.2 | 9.7 | 0.00 | 0.00 | 0.00 | 79 | 1021.8 |
| 20260506175806 | 12 | 306 | 0.0 | 4.8 | 0.00 | 0.00 | 0.00 | 78 | 1021.8 |
| 20260506175306 | 12 | 277 | 3.2 | 4.8 | 0.00 | 0.00 | 0.00 | 79 | 1021.6 |
| 20260506174800 | 12 | 266 | 4.8 | 4.8 | 0.00 | 0.00 | 0.00 | 79 | 1021.8 |
| 20260506174257 | 12 | 253 | 0.0 | 6.4 | 0.00 | 0.00 | 0.00 | 79 | 1021.8 |
| 20260506173755 | 12 | 277 | 3.2 | 9.7 | 0.00 | 0.00 | 0.00 | 79 | 1021.8 |
| 20260506173252 | 12 | 320 | 3.2 | 9.7 | 0.00 | 0.00 | 0.00 | 79 | 1021.5 |
| 20260506172748 | 12 | 267 | 0.0 | 8.0 | 0.00 | 0.00 | 0.00 | 78 | 1021.6 |
| 20260506172245 | 12 | 268 | 4.8 | 6.4 | 0.00 | 0.00 | 0.00 | 78 | 1021.6 |
| 20260506171743 | 12 | 272 | 3.2 | 4.8 | 0.00 | 0.00 | 0.00 | 78 | 1021.5 |
| 20260506171240 | 12 | 292 | 0.0 | 8.0 | 0.00 | 0.00 | 0.00 | 78 | 1021.7 |
| 20260506170738 | 12 | 258 | 4.8 | 6.4 | 0.00 | 0.00 | 0.00 | 78 | 1021.6 |
| 20260506170234 | 12 | 282 | 3.2 | 6.4 | 0.00 | 0.00 | 0.00 | 79 | 1021.4 |
| 20260506165732 | 12 | 267 | 0.0 | 3.2 | 0.00 | 0.00 | 0.00 | 79 | 1021.5 |
| 20260506165229 | 12 | 271 | 4.8 | 4.8 | 0.00 | 0.00 | 0.00 | 79 | 1021.7 |
| 20260506164726 | 12 | 304 | 0.0 | 4.8 | 0.00 | 0.00 | 0.00 | 78 | 1021.6 |
| 20260506164223 | 12 | 297 | 0.0 | 6.4 | 0.00 | 0.00 | 0.00 | 79 | 1021.3 |
| 20260506163720 | 12 | 5 | 0.0 | 6.4 | 0.00 | 0.00 | 0.00 | 78 | 1021.4 |
| 20260506163215 | 12 | 249 | 1.6 | 4.8 | 0.00 | 0.00 | 0.00 | 78 | 1021.2 |
| 20260506162711 | 12 | 278 | 3.2 | 6.4 | 0.00 | 0.00 | 0.00 | 78 | 1021.3 |
| 20260506162209 | 12 | 282 | 0.0 | 4.8 | 0.00 | 0.00 | 0.00 | 78 | 1021.4 |
| 20260506161706 | 12 | 343 | 0.0 | 6.4 | 0.00 | 0.00 | 0.00 | 78 | 1021.2 |
| 20260506161203 | 12 | 298 | 3.2 | 6.4 | 0.00 | 0.00 | 0.00 | 79 | 1021.2 |
| 20260506160701 | 12 | 267 | 3.2 | 8.0 | 0.00 | 0.00 | 0.00 | 79 | 1021.4 |
| 20260506160157 | 12 | 271 | 4.8 | 9.7 | 0.00 | 0.00 | 0.00 | 79 | 1021.4 |
| 20260506155655 | 12 | 251 | 3.2 | 4.8 | 0.00 | 0.00 | 0.00 | 79 | 1021.3 |
| 20260506155152 | 12 | 270 | 3.2 | 3.2 | 0.00 | 0.00 | 0.00 | 80 | 1021.2 |
| 20260506153254 | 12 | 265 | 6.4 | 8.0 | 0.00 | 0.00 | 0.00 | 80 | 1020.9 |
| 20260506152751 | 12 | 282 | 1.6 | 3.2 | 0.00 | 0.00 | 0.00 | 80 | 1021.0 |
| 20260506152248 | 11 | 297 | 0.0 | 4.8 | 0.00 | 0.00 | 0.00 | 80 | 1021.1 |
| 20260506151747 | 11 | 253 | 3.2 | 4.8 | 0.00 | 0.00 | 0.00 | 80 | 1021.0 |
| 20260506151243 | 11 | 346 | 0.0 | 4.8 | 0.00 | 0.00 | 0.00 | 80 | 1020.8 |
| 20260506150740 | 11 | 282 | 3.2 | 3.2 | 0.00 | 0.00 | 0.00 | 81 | 1020.9 |
| 20260506150237 | 11 | 337 | 0.0 | 4.8 | 0.00 | 0.00 | 0.00 | 81 | 1020.8 |
| 20260506145734 | 11 | 318 | 1.6 | 8.0 | 0.00 | 0.00 | 0.00 | 81 | 1020.7 |
| 20260506145230 | 11 | 287 | 3.2 | 4.8 | 0.00 | 0.00 | 0.00 | 81 | 1020.6 |
| 20260506144728 | 11 | 313 | 0.0 | 4.8 | 0.00 | 0.00 | 0.00 | 81 | 1020.5 |
| 20260506144225 | 11 | 287 | 0.0 | 3.2 | 0.00 | 0.00 | 0.00 | 82 | 1020.9 |
| 20260506143722 | 11 | 293 | 4.8 | 4.8 | 0.00 | 0.00 | 0.00 | 82 | 1020.7 |
| 20260506143220 | 11 | 289 | 1.6 | 4.8 | 0.00 | 0.00 | 0.00 | 82 | 1020.6 |
| 20260506142718 | 11 | 299 | 1.6 | 3.2 | 0.00 | 0.00 | 0.00 | 83 | 1020.6 |
| 20260506142216 | 11 | 306 | 0.0 | 3.2 | 0.00 | 0.00 | 0.00 | 83 | 1020.7 |
| 20260506141714 | 11 | 17 | 1.6 | 4.8 | 0.00 | 0.00 | 0.00 | 83 | 1020.6 |
| 20260506141212 | 11 | 301 | 3.2 | 6.4 | 0.00 | 0.00 | 0.00 | 84 | 1020.7 |
| 20260506140709 | 11 | 309 | 0.0 | 4.8 | 0.00 | 0.00 | 0.00 | 85 | 1020.3 |
| 20260506140206 | 11 | 306 | 0.0 | 3.2 | 0.00 | 0.00 | 0.00 | 85 | 1020.1 |
| 20260506135703 | 11 | 318 | 0.0 | 3.2 | 0.00 | 0.00 | 0.00 | 85 | 1020.2 |
| 20260506135159 | 11 | 290 | 3.2 | 3.2 | 0.00 | 0.00 | 0.00 | 86 | 1020.2 |
| 20260506134656 | 11 | 294 | 1.6 | 3.2 | 0.00 | 0.00 | 0.00 | 86 | 1020.3 |
| 20260506134152 | 11 | 282 | 3.2 | 4.8 | 0.00 | 0.00 | 0.00 | 86 | 1020.2 |
| 20260506133649 | 11 | 270 | 0.0 | 3.2 | 0.00 | 0.00 | 0.00 | 86 | 1020.1 |
| 20260506133146 | 11 | 318 | 0.0 | 0.0 | 0.00 | 0.00 | 0.00 | 86 | 1020.0 |
| 20260506132643 | 11 | 290 | 0.0 | 0.0 | 0.00 | 0.00 | 0.00 | 86 | 1019.9 |
| 20260506132140 | 11 | 332 | 0.0 | 3.2 | 0.00 | 0.00 | 0.00 | 86 | 1020.2 |
| 20260506131638 | 11 | 242 | 1.6 | 3.2 | 0.00 | 0.00 | 0.00 | 86 | 1020.1 |
| 20260506131133 | 11 | 302 | 3.2 | 3.2 | 0.00 | 0.00 | 0.00 | 86 | 1020.1 |
| 20260506130630 | 11 | 12 | 0.0 | 1.6 | 0.00 | 0.00 | 0.00 | 87 | 1020.1 |
| 20260506130128 | 11 | 349 | 0.0 | 1.6 | 0.00 | 0.00 | 0.00 | 87 | 1019.8 |
| 20260506125626 | 11 | 278 | 3.2 | 3.2 | 0.00 | 0.00 | 0.00 | 87 | 1019.9 |
| 20260506125123 | 11 | 306 | 0.0 | 4.8 | 0.00 | 0.00 | 0.00 | 87 | 1019.8 |
| 20260506124621 | 11 | 288 | 0.0 | 1.6 | 0.00 | 0.00 | 0.00 | 87 | 1020.1 |
| 20260506124119 | 11 | 282 | 0.0 | 1.6 | 0.00 | 0.00 | 0.00 | 87 | 1019.8 |
| 20260506123616 | 11 | 5 | 0.0 | 0.0 | 0.00 | 0.00 | 0.00 | 87 | 1019.9 |
| 20260506123115 | 11 | 336 | 0.0 | 3.2 | 0.00 | 0.00 | 0.00 | 87 | 1020.1 |
| 20260506122611 | 11 | 282 | 0.0 | 6.4 | 0.00 | 0.00 | 0.00 | 87 | 1019.9 |
| 20260506122109 | 11 | 267 | 3.2 | 4.8 | 0.00 | 0.00 | 0.00 | 87 | 1019.6 |
| 20260506121606 | 11 | 302 | 0.0 | 4.8 | 0.00 | 0.00 | 0.00 | 87 | 1019.7 |
| 20260506121102 | 11 | 261 | 0.0 | 4.8 | 0.00 | 0.00 | 0.00 | 87 | 1019.6 |
| 20260506120601 | 11 | 12 | 0.0 | 4.8 | 0.00 | 0.00 | 0.00 | 87 | 1019.6 |
| 20260506120058 | 11 | 282 | 0.0 | 3.2 | 0.00 | 0.00 | 0.00 | 87 | 1019.6 |
| 20260506115556 | 11 | 279 | 4.8 | 6.4 | 0.00 | 0.00 | 0.00 | 87 | 1019.9 |
| 20260506115054 | 11 | 318 | 0.0 | 4.8 | 0.00 | 0.00 | 0.00 | 87 | 1019.8 |
| 20260506114551 | 11 | 12 | 0.0 | 3.2 | 0.00 | 0.00 | 0.00 | 87 | 1019.5 |
| 20260506114049 | 11 | 282 | 3.2 | 3.2 | 0.00 | 0.00 | 0.00 | 86 | 1019.7 |
| 20260506113547 | 11 | 291 | 0.0 | 3.2 | 0.00 | 0.00 | 0.00 | 86 | 1019.6 |
| 20260506113044 | 11 | 282 | 0.0 | 3.2 | 0.00 | 0.00 | 0.00 | 86 | 1019.7 |
| 20260506112540 | 11 | 306 | 0.0 | 4.8 | 0.00 | 0.00 | 0.00 | 86 | 1019.7 |
| 20260506112038 | 11 | 290 | 0.0 | 3.2 | 0.00 | 0.00 | 0.00 | 86 | 1019.6 |
| 20260506111535 | 11 | 282 | 0.0 | 6.4 | 0.00 | 0.00 | 0.00 | 86 | 1019.8 |
| 20260506111032 | 11 | 17 | 0.0 | 3.2 | 0.00 | 0.00 | 0.00 | 86 | 1019.7 |
| 20260506110530 | 11 | 337 | 0.0 | 3.2 | 0.00 | 0.00 | 0.00 | 86 | 1019.6 |
| 20260506110027 | 11 | 260 | 0.0 | 3.2 | 0.00 | 0.00 | 0.00 | 86 | 1019.5 |
| 20260506105523 | 11 | 290 | 0.0 | 4.8 | 0.00 | 0.00 | 0.00 | 85 | 1019.5 |
| 20260506105021 | 11 | 6 | 0.0 | 3.2 | 0.00 | 0.00 | 0.00 | 85 | 1019.3 |
| 20260506104519 | 11 | 227 | 0.0 | 3.2 | 0.00 | 0.00 | 0.00 | 85 | 1019.2 |
| 20260506104017 | 11 | 282 | 1.6 | 1.6 | 0.00 | 0.00 | 0.00 | 85 | 1019.1 |
| 20260506103513 | 11 | 309 | 0.0 | 1.6 | 0.00 | 0.00 | 0.00 | 85 | 1019.0 |
| 20260506103010 | 11 | 12 | 0.0 | 3.2 | 0.00 | 0.00 | 0.00 | 85 | 1019.2 |
| 20260506102509 | 11 | 267 | 0.0 | 3.2 | 0.00 | 0.00 | 0.00 | 85 | 1019.2 |
| 20260506102005 | 11 | 332 | 0.0 | 3.2 | 0.00 | 0.00 | 0.00 | 84 | 1019.1 |
| 20260506101501 | 11 | 318 | 0.0 | 4.8 | 0.00 | 0.00 | 0.00 | 84 | 1019.2 |
| 20260506100959 | 11 | 303 | 1.6 | 4.8 | 0.00 | 0.00 | 0.00 | 84 | 1019.1 |
| 20260506100457 | 11 | 298 | 3.2 | 3.2 | 0.00 | 0.00 | 0.00 | 84 | 1019.2 |
| 20260506095955 | 11 | 315 | 0.0 | 3.2 | 0.00 | 0.00 | 0.00 | 84 | 1019.3 |
| 20260506095453 | 11 | 340 | 0.0 | 3.2 | 0.00 | 0.00 | 0.00 | 84 | 1019.3 |
| 20260506094949 | 11 | 340 | 1.6 | 3.2 | 0.00 | 0.00 | 0.00 | 84 | 1019.4 |
| 20260506094448 | 11 | 307 | 3.2 | 4.8 | 0.00 | 0.00 | 0.00 | 84 | 1019.4 |
| 20260506093945 | 11 | 306 | 1.6 | 4.8 | 0.00 | 0.00 | 0.00 | 83 | 1019.0 |
| 20260506093443 | 11 | 299 | 0.0 | 4.8 | 0.00 | 0.00 | 0.00 | 83 | 1018.9 |
| 20260506092940 | 11 | 7 | 1.6 | 3.2 | 0.00 | 0.00 | 0.00 | 83 | 1019.0 |
| 20260506092438 | 11 | 304 | 0.0 | 3.2 | 0.00 | 0.00 | 0.00 | 83 | 1019.2 |
| 20260506091934 | 11 | 294 | 1.6 | 3.2 | 0.00 | 0.00 | 0.00 | 83 | 1019.2 |
| 20260506091433 | 11 | 19 | 0.0 | 3.2 | 0.00 | 0.00 | 0.00 | 83 | 1019.0 |
| 20260506090930 | 11 | 340 | 0.0 | 3.2 | 0.00 | 0.00 | 0.00 | 83 | 1018.9 |
| 20260506090427 | 11 | 286 | 0.0 | 4.8 | 0.00 | 0.00 | 0.00 | 83 | 1018.9 |
| 20260506085924 | 11 | 335 | 0.0 | 3.2 | 0.00 | 0.00 | 0.00 | 83 | 1018.7 |
| 20260506085420 | 11 | 306 | 1.6 | 4.8 | 0.00 | 0.00 | 0.00 | 83 | 1018.8 |
| 20260506084917 | 11 | 349 | 0.0 | 3.2 | 0.00 | 0.00 | 0.00 | 83 | 1018.6 |
| 20260506084414 | 12 | 282 | 4.8 | 4.8 | 0.00 | 0.00 | 0.00 | 82 | 1018.7 |
| 20260506083910 | 12 | 295 | 0.0 | 8.0 | 0.00 | 0.00 | 0.00 | 83 | 1018.9 |
| 20260506083407 | 12 | 318 | 0.0 | 3.2 | 0.00 | 0.00 | 0.00 | 82 | 1018.8 |
| 20260506082905 | 12 | 5 | 0.0 | 3.2 | 0.00 | 0.00 | 0.00 | 82 | 1018.8 |
| 20260506082401 | 12 | 327 | 3.2 | 3.2 | 0.00 | 0.00 | 0.00 | 82 | 1018.7 |
| 20260506081857 | 12 | 353 | 3.2 | 3.2 | 0.00 | 0.00 | 0.00 | 82 | 1018.6 |
| 20260506081355 | 12 | 309 | 0.0 | 3.2 | 0.00 | 0.00 | 0.00 | 82 | 1018.7 |
| 20260506080853 | 12 | 309 | 1.6 | 3.2 | 0.00 | 0.00 | 0.00 | 82 | 1018.6 |
| 20260506080349 | 12 | 304 | 3.2 | 4.8 | 0.00 | 0.00 | 0.00 | 82 | 1018.6 |
| 20260506073333 | 12 | 349 | 0.0 | 3.2 | 0.00 | 0.00 | 0.00 | 82 | 1018.3 |
| 20260506072830 | 12 | 319 | 0.0 | 3.2 | 0.00 | 0.00 | 0.00 | 82 | 1018.1 |
| 20260506072328 | 12 | 269 | 4.8 | 8.0 | 0.00 | 0.00 | 0.00 | 82 | 1018.2 |
| 20260506071826 | 12 | 339 | 3.2 | 6.4 | 0.00 | 0.00 | 0.00 | 82 | 1018.1 |
| 20260506071323 | 12 | 287 | 0.0 | 4.8 | 0.00 | 0.00 | 0.00 | 82 | 1018.1 |
| 20260506070820 | 12 | 316 | 3.2 | 4.8 | 0.00 | 0.00 | 0.00 | 82 | 1018.2 |
| 20260506070317 | 12 | 282 | 0.0 | 4.8 | 0.00 | 0.00 | 0.00 | 81 | 1018.0 |
| 20260506062254 | 12 | 38 | 0.0 | 6.4 | 0.00 | 0.00 | 0.00 | 81 | 1017.9 |
| 20260506061750 | 12 | 12 | 0.0 | 3.2 | 0.00 | 0.00 | 0.00 | 81 | 1018.1 |
| 20260506061247 | 12 | 312 | 0.0 | 4.8 | 0.00 | 0.00 | 0.00 | 81 | 1017.7 |
| 20260506060746 | 12 | 306 | 1.6 | 6.4 | 0.00 | 0.00 | 0.00 | 81 | 1018.1 |
| 20260506060243 | 12 | 305 | 4.8 | 4.8 | 0.00 | 0.00 | 0.00 | 81 | 1018.0 |
| 20260506051215 | 12 | 290 | 1.6 | 6.4 | 0.00 | 0.00 | 0.00 | 79 | 1018.0 |
| 20260506050713 | 12 | 306 | 0.0 | 4.8 | 0.00 | 0.00 | 0.00 | 79 | 1018.1 |
| 20260506050210 | 12 | 287 | 0.0 | 3.2 | 0.00 | 0.00 | 0.00 | 79 | 1017.8 |
| 20260506044701 | 12 | 265 | 6.4 | 6.4 | 0.00 | 0.00 | 0.00 | 78 | 1017.7 |
| 20260506044157 | 12 | 288 | 0.0 | 6.4 | 0.00 | 0.00 | 0.00 | 78 | 1018.0 |
| 20260506043655 | 12 | 293 | 4.8 | 8.0 | 0.00 | 0.00 | 0.00 | 78 | 1017.8 |
| 20260506043153 | 12 | 270 | 0.0 | 6.4 | 0.00 | 0.00 | 0.00 | 78 | 1017.7 |
| 20260506042652 | 12 | 262 | 0.0 | 6.4 | 0.00 | 0.00 | 0.00 | 78 | 1017.5 |
| 20260506042149 | 12 | 279 | 4.8 | 9.7 | 0.00 | 0.00 | 0.00 | 77 | 1017.7 |
| 20260506041648 | 13 | 287 | 3.2 | 8.0 | 0.00 | 0.00 | 0.00 | 77 | 1017.6 |
| 20260506041144 | 13 | 272 | 3.2 | 8.0 | 0.00 | 0.00 | 0.00 | 77 | 1017.6 |
| 20260506040642 | 13 | 277 | 0.0 | 8.0 | 0.00 | 0.00 | 0.00 | 77 | 1017.3 |
| 20260506040138 | 13 | 277 | 0.0 | 3.2 | 0.00 | 0.00 | 0.00 | 77 | 1017.3 |
| 20260506035635 | 13 | 282 | 1.6 | 3.2 | 0.00 | 0.00 | 0.00 | 77 | 1017.2 |
| 20260506035132 | 13 | 312 | 0.0 | 8.0 | 0.00 | 0.00 | 0.00 | 77 | 1017.5 |
| 20260506034629 | 13 | 303 | 0.0 | 8.0 | 0.00 | 0.00 | 0.00 | 77 | 1017.2 |
| 20260506034126 | 13 | 272 | 3.2 | 3.2 | 0.00 | 0.00 | 0.00 | 77 | 1017.1 |
| 20260506033623 | 13 | 276 | 1.6 | 4.8 | 0.00 | 0.00 | 0.00 | 76 | 1017.3 |
| 20260506033120 | 13 | 324 | 0.0 | 4.8 | 0.00 | 0.00 | 0.00 | 76 | 1017.1 |
| 20260506032617 | 13 | 262 | 3.2 | 6.4 | 0.00 | 0.00 | 0.00 | 76 | 1016.7 |
| 20260506032114 | 13 | 270 | 0.0 | 8.0 | 0.00 | 0.00 | 0.00 | 76 | 1017.0 |
| 20260506031611 | 13 | 282 | 0.0 | 6.4 | 0.00 | 0.00 | 0.00 | 76 | 1017.0 |
| 20260506031108 | 13 | 288 | 0.0 | 3.2 | 0.00 | 0.00 | 0.00 | 76 | 1017.0 |
| 20260506030607 | 13 | 289 | 4.8 | 6.4 | 0.00 | 0.00 | 0.00 | 76 | 1016.9 |
| 20260506030104 | 13 | 282 | 0.0 | 6.4 | 0.00 | 0.00 | 0.00 | 75 | 1016.8 |
| 20260506025600 | 13 | 282 | 3.2 | 4.8 | 0.00 | 0.00 | 0.00 | 75 | 1016.9 |
| 20260506025056 | 14 | 287 | 3.2 | 4.8 | 0.00 | 0.00 | 0.00 | 75 | 1016.9 |
| 20260506024554 | 14 | 274 | 3.2 | 6.4 | 0.00 | 0.00 | 0.00 | 75 | 1016.8 |
| 20260506024050 | 14 | 274 | 1.6 | 6.4 | 0.00 | 0.00 | 0.00 | 75 | 1016.7 |
| 20260506023546 | 14 | 299 | 0.0 | 8.0 | 0.00 | 0.00 | 0.00 | 74 | 1016.6 |
| 20260506023043 | 14 | 297 | 0.0 | 4.8 | 0.00 | 0.00 | 0.00 | 75 | 1016.7 |
| 20260506022540 | 14 | 261 | 0.0 | 6.4 | 0.00 | 0.00 | 0.00 | 75 | 1016.6 |
| 20260506022033 | 14 | 290 | 0.0 | 3.2 | 0.00 | 0.00 | 0.00 | 75 | 1016.8 |
| 20260506021530 | 14 | 267 | 0.0 | 1.6 | 0.00 | 0.00 | 0.00 | 74 | 1017.0 |
| 20260506021027 | 14 | 252 | 3.2 | 6.4 | 0.00 | 0.00 | 0.00 | 74 | 1016.6 |
| 20260506020525 | 15 | 258 | 1.6 | 6.4 | 0.00 | 0.00 | 0.00 | 74 | 1016.7 |
| 20260506020022 | 15 | 282 | 0.0 | 6.4 | 0.00 | 0.00 | 0.00 | 74 | 1016.7 |
| 20260506015519 | 15 | 267 | 3.2 | 8.0 | 0.00 | 0.00 | 0.00 | 73 | 1016.9 |
| 20260506015016 | 15 | 251 | 3.2 | 8.0 | 0.00 | 0.00 | 0.00 | 73 | 1016.8 |
| 20260506014513 | 15 | 295 | 0.0 | 3.2 | 0.00 | 0.00 | 0.00 | 73 | 1016.9 |
| 20260506014009 | 15 | 286 | 0.0 | 6.4 | 0.00 | 0.00 | 0.00 | 73 | 1016.7 |
| 20260506013507 | 15 | 84 | 4.8 | 6.4 | 0.00 | 0.00 | 0.00 | 72 | 1016.4 |
| 20260506013004 | 16 | 246 | 1.6 | 4.8 | 0.00 | 0.00 | 0.00 | 71 | 1016.5 |
| 20260506012459 | 16 | 269 | 3.2 | 8.0 | 0.00 | 0.00 | 0.00 | 71 | 1016.7 |
| 20260506011957 | 16 | 250 | 3.2 | 9.7 | 0.00 | 0.00 | 0.00 | 70 | 1016.7 |
| 20260506011454 | 16 | 253 | 4.8 | 8.0 | 0.00 | 0.00 | 0.00 | 71 | 1016.5 |
| 20260506010950 | 16 | 276 | 0.0 | 3.2 | 0.00 | 0.00 | 0.00 | 70 | 1016.6 |
| 20260506010450 | 16 | 180 | 0.0 | 6.4 | 0.00 | 0.00 | 0.00 | 70 | 1016.4 |
| 20260506005945 | 16 | 249 | 4.8 | 6.4 | 0.00 | 0.00 | 0.00 | 70 | 1016.6 |
| 20260506005443 | 16 | 255 | 0.0 | 4.8 | 0.00 | 0.00 | 0.00 | 69 | 1016.5 |
| 20260506004938 | 17 | 227 | 0.0 | 6.4 | 0.00 | 0.00 | 0.00 | 68 | 1016.5 |
| 20260506004436 | 17 | 6 | 0.0 | 3.2 | 0.00 | 0.00 | 0.00 | 68 | 1016.5 |
| 20260506003932 | 17 | 224 | 1.6 | 8.0 | 0.00 | 0.00 | 0.00 | 68 | 1016.6 |
| 20260506003429 | 17 | 343 | 0.0 | 8.0 | 0.00 | 0.00 | 0.00 | 67 | 1016.4 |
| 20260506002926 | 17 | 267 | 0.0 | 3.2 | 0.00 | 0.00 | 0.00 | 66 | 1016.5 |
| 20260506002421 | 17 | 202 | 0.0 | 3.2 | 0.00 | 0.00 | 0.00 | 67 | 1016.6 |
| 20260506001917 | 17 | 66 | 0.0 | 6.4 | 0.00 | 0.00 | 0.00 | 67 | 1016.6 |
| 20260506001415 | 17 | 265 | 4.8 | 8.0 | 0.00 | 0.00 | 0.00 | 67 | 1016.8 |
| 20260506000912 | 17 | 6 | 0.0 | 8.0 | 0.00 | 0.00 | 0.00 | 65 | 1016.5 |
| 20260506000409 | 18 | 291 | 3.2 | 4.8 | 0.00 | 0.00 | 0.00 | 67 | 1016.8 |
| 20260505235906 | 17 | 72 | 0.0 | 3.2 | 0.00 | 0.00 | 0.00 | 67 | 1016.7 |
| 20260505235404 | 17 | 216 | 3.2 | 9.7 | 0.00 | 0.00 | 0.00 | 67 | 1016.8 |
| 20260505234900 | 17 | 323 | 1.6 | 4.8 | 0.00 | 0.00 | 0.00 | 66 | 1016.6 |
| 20260505234358 | 17 | 222 | 4.8 | 8.0 | 0.00 | 0.00 | 0.00 | 68 | 1016.8 |
| 20260505233854 | 17 | 253 | 4.8 | 6.4 | 0.00 | 0.00 | 0.00 | 68 | 1016.8 |
| 20260505233352 | 17 | 211 | 3.2 | 9.7 | 0.00 | 0.00 | 0.00 | 67 | 1016.8 |